Time,TemperatureF,DewpointF,PressureIn,WindDirection,WindDirectionDegrees,WindSpeedMPH,WindSpeedGustMPH,Humidity,HourlyPrecipIn,Conditions,Clouds,dailyrainin,SoftwareType,DateUTC
2013-05-12 00:02:00,39.0,-99.9,29.53,NW,318,12.0,-999.0,-999,-99.99,,,-99.99,,2013-05-12 08:02:00,
2013-05-12 00:11:00,39.0,-99.9,29.53,NW,318,12.0,-999.0,-999,-99.99,,,-99.99,,2013-05-12 08:11:00,
2013-05-12 00:21:00,39.0,-99.9,29.53,NW,318,12.0,-999.0,-999,-99.99,,,-99.99,,2013-05-12 08:21:00,
2013-05-12 00:32:00,39.0,-99.9,29.53,NW,318,12.0,-999.0,-999,-99.99,,,-99.99,,2013-05-12 08:32:00,
2013-05-12 00:53:00,38.0,-99.9,29.52,NNW,331,9.0,-999.0,-999,-99.99,,,-99.99,,2013-05-12 08:53:00,
2013-05-12 01:01:00,38.0,-99.9,29.52,NNW,331,9.0,-999.0,-999,-99.99,,,-99.99,,2013-05-12 09:01:00,
2013-05-12 01:11:00,38.0,-99.9,29.52,NNW,331,9.0,-999.0,-999,-99.99,,,-99.99,,2013-05-12 09:11:00,
2013-05-12 01:21:00,39.0,-99.9,29.52,North,360,11.0,-999.0,-999,-99.99,,,-99.99,,2013-05-12 09:21:00,
2013-05-12 01:33:00,39.0,-99.9,29.52,North,360,11.0,-999.0,-999,-99.99,,,-99.99,,2013-05-12 09:33:00,
2013-05-12 01:43:00,39.0,-99.9,29.52,North,360,11.0,-999.0,-999,-99.99,,,-99.99,,2013-05-12 09:43:00,
2013-05-12 01:53:00,39.0,-99.9,29.51,NW,326,6.0,-999.0,-999,-99.99,,,-99.99,,2013-05-12 09:53:00,
2013-05-12 02:03:00,39.0,-99.9,29.51,NW,326,6.0,-999.0,-999,-99.99,,,-99.99,,2013-05-12 10:03:00,
2013-05-12 02:12:00,39.0,-99.9,29.51,NW,326,6.0,-999.0,-999,-99.99,,,-99.99,,2013-05-12 10:12:00,
2013-05-12 02:23:00,38.0,-99.9,29.51,NNW,340,7.0,-999.0,-999,-99.99,,,-99.99,,2013-05-12 10:23:00,
2013-05-12 02:33:00,38.0,-99.9,29.51,NNW,340,7.0,-999.0,-999,-99.99,,,-99.99,,2013-05-12 10:33:00,
2013-05-12 02:42:00,38.0,-99.9,29.51,NNW,340,7.0,-999.0,-999,-99.99,,,-99.99,,2013-05-12 10:42:00,
2013-05-12 02:52:00,37.0,-99.9,29.50,NNW,340,9.0,-999.0,-999,-99.99,,,-99.99,,2013-05-12 10:52:00,
2013-05-12 03:03:00,37.0,-99.9,29.50,NNW,340,9.0,-999.0,-999,-99.99,,,-99.99,,2013-05-12 11:03:00,
2013-05-12 03:12:00,37.0,-99.9,29.50,NNW,340,9.0,-999.0,-999,-99.99,,,-99.99,,2013-05-12 11:12:00,
2013-05-12 03:22:00,37.0,-99.9,29.49,NW,316,8.0,-999.0,-999,-99.99,,,-99.99,,2013-05-12 11:22:00,
2013-05-12 03:32:00,37.0,-99.9,29.49,NW,316,8.0,-999.0,-999,-99.99,,,-99.99,,2013-05-12 11:32:00,
2013-05-12 03:42:00,37.0,-99.9,29.49,NW,316,8.0,-999.0,-999,-99.99,,,-99.99,,2013-05-12 11:42:00,
2013-05-12 03:52:00,37.0,-99.9,29.48,NNW,331,9.0,-999.0,-999,-99.99,,,-99.99,,2013-05-12 11:52:00,
2013-05-12 04:02:00,37.0,-99.9,29.48,NNW,331,9.0,-999.0,-999,-99.99,,,-99.99,,2013-05-12 12:02:00,
2013-05-12 04:11:00,37.0,-99.9,29.48,NNW,331,9.0,-999.0,-999,-99.99,,,-99.99,,2013-05-12 12:11:00,
2013-05-12 04:22:00,37.0,-99.9,29.48,NNW,335,8.0,-999.0,-999,-99.99,,,-99.99,,2013-05-12 12:22:00,
2013-05-12 04:32:00,37.0,-99.9,29.48,NNW,335,8.0,-999.0,-999,-99.99,,,-99.99,,2013-05-12 12:32:00,
2013-05-12 04:42:00,37.0,-99.9,29.48,NNW,335,8.0,-999.0,-999,-99.99,,,-99.99,,2013-05-12 12:42:00,
2013-05-12 04:52:00,36.0,-99.9,29.48,NNW,334,6.0,-999.0,-999,-99.99,,,-99.99,,2013-05-12 12:52:00,
2013-05-12 05:02:00,36.0,-99.9,29.48,NNW,334,6.0,-999.0,-999,-99.99,,,-99.99,,2013-05-12 13:02:00,
2013-05-12 05:11:00,36.0,-99.9,29.48,NNW,334,6.0,-999.0,-999,-99.99,,,-99.99,,2013-05-12 13:11:00,
2013-05-12 05:21:00,36.0,-99.9,29.47,NNW,334,6.0,-999.0,-999,-99.99,,,-99.99,,2013-05-12 13:21:00,
2013-05-12 05:32:00,36.0,-99.9,29.47,NNW,334,6.0,-999.0,-999,-99.99,,,-99.99,,2013-05-12 13:32:00,
2013-05-12 05:42:00,36.0,-99.9,29.47,NNW,334,6.0,-999.0,-999,-99.99,,,-99.99,,2013-05-12 13:42:00,
2013-05-12 05:52:00,37.0,-99.9,29.47,NNW,334,4.0,-999.0,-999,-99.99,,,-99.99,,2013-05-12 13:52:00,
2013-05-12 06:02:00,37.0,-99.9,29.47,NNW,334,4.0,-999.0,-999,-99.99,,,-99.99,,2013-05-12 14:02:00,
2013-05-12 06:11:00,37.0,-99.9,29.47,NNW,334,4.0,-999.0,-999,-99.99,,,-99.99,,2013-05-12 14:11:00,
2013-05-12 06:22:00,37.0,-99.9,29.46,NNW,333,4.0,-999.0,-999,-99.99,,,-99.99,,2013-05-12 14:22:00,
2013-05-12 06:32:00,37.0,-99.9,29.46,NNW,333,4.0,-999.0,-999,-99.99,,,-99.99,,2013-05-12 14:32:00,
2013-05-12 06:42:00,36.0,-99.9,29.44,NNW,333,4.0,-999.0,-999,-99.99,,,-99.99,,2013-05-12 14:42:00,
2013-05-12 06:52:00,36.0,-99.9,29.44,NNW,333,4.0,-999.0,-999,-99.99,,,-99.99,,2013-05-12 14:52:00,
2013-05-12 07:01:00,36.0,-99.9,29.44,NNW,333,4.0,-999.0,-999,-99.99,,,-99.99,,2013-05-12 15:01:00,
2013-05-12 07:11:00,36.0,-99.9,29.44,NNW,333,4.0,-999.0,-999,-99.99,,,-99.99,,2013-05-12 15:11:00,
2013-05-12 07:21:00,37.0,-99.9,29.43,NNW,334,4.0,-999.0,-999,-99.99,,,-99.99,,2013-05-12 15:21:00,
2013-05-12 07:34:00,37.0,-99.9,29.43,NNW,334,4.0,-999.0,-999,-99.99,,,-99.99,,2013-05-12 15:34:00,
2013-05-12 07:42:00,37.0,-99.9,29.43,NNW,334,4.0,-999.0,-999,-99.99,,,-99.99,,2013-05-12 15:42:00,
2013-05-12 07:53:00,38.0,-99.9,29.43,NNW,333,3.0,-999.0,-999,-99.99,,,-99.99,,2013-05-12 15:53:00,
2013-05-12 08:02:00,38.0,-99.9,29.43,NNW,333,3.0,-999.0,-999,-99.99,,,-99.99,,2013-05-12 16:02:00,
2013-05-12 08:13:00,38.0,-99.9,29.43,NNW,333,3.0,-999.0,-999,-99.99,,,-99.99,,2013-05-12 16:13:00,
2013-05-12 08:23:00,38.0,-99.9,29.43,NNW,333,3.0,-999.0,-999,-99.99,,,-99.99,,2013-05-12 16:23:00,
2013-05-12 08:33:00,38.0,-99.9,29.43,NNW,333,3.0,-999.0,-999,-99.99,,,-99.99,,2013-05-12 16:33:00,
2013-05-12 12:22:00,39.0,-99.9,29.41,West,260,7.0,-999.0,-999,-99.99,,,-99.99,,2013-05-12 20:22:00,
2013-05-12 12:32:00,39.0,-99.9,29.41,West,260,7.0,-999.0,-999,-99.99,,,-99.99,,2013-05-12 20:32:00,
2013-05-12 12:42:00,39.0,-99.9,29.41,West,260,7.0,-999.0,-999,-99.99,,,-99.99,,2013-05-12 20:42:00,
2013-05-12 12:52:00,40.0,-99.9,29.39,SW,230,9.0,-999.0,-999,-99.99,,,-99.99,,2013-05-12 20:52:00,
2013-05-12 13:01:00,40.0,-99.9,29.39,SW,230,9.0,-999.0,-999,-99.99,,,-99.99,,2013-05-12 21:01:00,
2013-05-12 13:11:00,40.0,-99.9,29.39,SW,230,9.0,-999.0,-999,-99.99,,,-99.99,,2013-05-12 21:11:00,
2013-05-12 13:22:00,40.0,-99.9,29.39,SW,230,9.0,-999.0,-999,-99.99,,,-99.99,,2013-05-12 21:22:00,
2013-05-12 13:33:00,40.0,-99.9,29.39,SW,230,9.0,-999.0,-999,-99.99,,,-99.99,,2013-05-12 21:33:00,
2013-05-12 19:22:00,40.0,-99.9,29.32,WSW,254,12.0,-999.0,-999,-99.99,,,-99.99,,2013-05-13 03:22:00,
2013-05-12 19:33:00,40.0,-99.9,29.32,WSW,254,12.0,-999.0,-999,-99.99,,,-99.99,,2013-05-13 03:33:00,
2013-05-12 19:42:00,40.0,-99.9,29.32,WSW,254,12.0,-999.0,-999,-99.99,,,-99.99,,2013-05-13 03:42:00,
2013-05-12 19:53:00,40.0,-99.9,29.32,WSW,254,12.0,-999.0,-999,-99.99,,,-99.99,,2013-05-13 03:53:00,
2013-05-12 20:03:00,40.0,-99.9,29.32,WSW,254,12.0,-999.0,-999,-99.99,,,-99.99,,2013-05-13 04:03:00,